Погода в Симферополе

Хотите узнать прогноз погоды в Симферополе? Тогда Вам сюда: Погода в Симферополе

Поиск расширенной информации на нашем сайте:

Полезная информация:

Новости сайта



02.01.2020
Опубликован Долгосрочный прогноз погоды по городам России и ближнего зарубежья на январь 2020 года.
Карты: Прогноз на январь и февраль 2020 года, Сравнение прогнозируемой аномалии приземной температуры воздуха на январь 2020 года по разным моделям.




Погода в Симферополе - сегодня

Время (UTC), дата Ветер
(°,м/с) 
Видим.   Явления Облачность Т
(°С)
Тd
(°С)
f(%) Тe
(°С)
Pmin
(гПа)
dP
(гПа)
Po
(мм)
O2
(г/м3)
Тmin Tmax R s Состояние
почвы
12 03.03.21 340 (С) 10 км    4/4 1140 м 
[Sc]
+8.2 -2.4 47 +7  1026.4  753  295           
15 03.03.21 310 (СЗ) 10 км    4/4 1410 м 
[Sc]
+6.7 -3.3 49 +5  1027.4  0.8  754  297           
18 03.03.21 270 (З) 10 км    ясно 
+1.8 -0.5 85 1028.7  0.9  754  302    +8.7       
21 03.03.21 170 (Ю) 10 км    ясно 
-0.5 -0.8 98 -2  1029  0.1  755  305           
00 04.03.21 170 (Ю) 10 км    ясно 
-1 -1.6 96 -3  1028.2  -0.8  754  305           
03 04.03.21 160 (Ю) 10 км    ясно 
-0.3 -2 88 -3  1026.9  -1.2  753  304  -1.5         
06 04.03.21 180 (Ю) 10 км    1/0 средняя 
[Ac trans]
+3.4 +0.3 80 +1  1025.7  -0.9  752  299  -1.5         
09 04.03.21 230 (ЮЗ) 8-10{11}  10 км    5/5 930 м 
[Sc]
+8.4 -0.6 53 +6  1023.7  -1.6  751  294           
12 04.03.21 230 (ЮЗ) 9-12{14}  10 км    3/0 средняя 
[Ac trans]
+9.2 -1.8 46 +7  1020.8  -2.7  749  292           
15 04.03.21 220 (ЮЗ) 8-12{13}  10 км    10/0 средняя, верхняя 
[Ac trans|Ci fib]
+6.2 -0.5 62 +3  1019.9  -1.2  748  295           
18 04.03.21 200 (Ю) 6{12}  10 км    8/0 средняя, верхняя 
[Ac trans|Ci fib]
+3.1 -0.5 77 1018.8  -1.3  747  298    +9.6       
21 04.03.21 210 (ЮЗ) 10 км    3/0 средняя 
[Ac trans]
+1.7 -4 66 -1  1017  -1.9  746  299           
00 05.03.21 200 (Ю) 10 км    10/0 верхняя 
[Ci fib]
+1.1 -2.5 77 1016.3  -0.7  745  299           
03 05.03.21 180 (Ю) 10 км    10/0 верхняя 
[Ci sp]
+4 -4 56 +2  1014.6  -1.4  744  296  -0.1         
06 05.03.21 180 (Ю) 10 км    6/0 верхняя 
[Ci fib]
+7.9 -3.6 44 +6  1013.6  -0.7  744  292  -0.1         
09 05.03.21 220 (ЮЗ) 12-15{15}  10 км    ясно 
+13.5 +1.8 45 +12  1012.2  -0.9  743  285           
12 05.03.21 230 (ЮЗ) 11-13{15}  10 км    3/0 верхняя 
[Ci fib]
+13.1 +4.3 55 +11  1012.1  -0.1  743  285           
15 05.03.21 230 (ЮЗ) 7{13}  10 км    3/0 верхняя 
[Ci fib]
+9.6 +4.4 70 +8  1013.2  0.8  744  289           
18 05.03.21 200 (Ю) 10 км    10/0 верхняя 
[Ci sp]
+5.4 +2.1 79 +4  1014.3  0.7  744  294    +14.4       
21 05.03.21 240 (ЮЗ) 10 км    10/0 верхняя 
[Ci sp]
+3 +0.6 84 +2  1015.3  0.8  745  297           
00 06.03.21 180 (Ю) 10 км    6/0 верхняя 
[Ci fib]
+1.9 -3 70 1014.9  -0.5  744  298           
03 06.03.21 170 (Ю) 10 км    6/0 верхняя 
[Ci fib]
+4.4 -5.1 50 +3  1013.6  -1.1  743  295  +1.2         
06 06.03.21 210 (ЮЗ) 10 км    10/0 средняя, верхняя 
[Ac trans|Ci sp]
+8.6 +1.7 62 +7  1013  -0.2  743  290  +1.2         
09 06.03.21 310 (СЗ) 6{11}  10 км    10/10 150 м 
[St]
+6.6 +5.7 94 +4  1015.8  2.6  745  292           
12 06.03.21 360 (С) 7-10  10 км  {туман}  10/10 120 м 
[St]
+2.1 +2 99 -1  1019.6  3.3  748  299           
Время (UTC), дата Ветер
(°,м/с) 
Видим.   Явления Облачность Т
(°С)
Тd
(°С)
f(%) Тe
(°С)
Pmin
(гПа)
dP
(гПа)
Po
(мм)
O2
(г/м3)
Тmin Tmax R s Состояние
почвы

Для получения пояснительной информации подведите курсор к названию столбца.

ПОГОДА в Симферополе - архив

Всё, что Вы хотите узнать о погоде в Симферополе - удобно и подробно!

Выберите нужную дату (начиная с 1 января 2019* года) и нажмите кнопку "Найти".
Будут отображены архивные сводки погоды по пункту Симферополь, начиная с указанной даты.


Отображать данные в формате CSV (для использования в таблицах Excel)


Внимание! Наш архив погоды предназначен исключительно для личного некоммерческого использования в познавательных целях. Если Вам необходимы официальные справки о состоянии погоды (для производственных, юридических, коммерческих и т.п. целей), обращайтесь в органы Росгидромета.

*Примечание: данная дата относится к архиву по метеостанциям СССР (Россия, СНГ, Балтия).
Архив по метеостанциям Зарубежной Европы и Азии (кроме Китая) хранится 10 дней, по другим регионам земного шара (Китай, Африка, Америка, Австралия, Океания) - 1 день.

Симферополь - район местоположения метеостанции


Название, широта, долгота, высота метеостанции:
Симферополь 44.7°ш. 34.1°д. 181 м над ур. моря [Российская Федерация]

Дополнительная информация

В oтличие oт бoльшинства пoгoдных сайтoв мы публикуем пoдрoбную метеoинфoрмацию в детальнoм прoфессиoнальнoм фoрмате.

Характеристики температуры и влажнoсти вoздуха измеряются на высoте 2 м в тени вдали oт зданий и деревьев.
Скoрoсть ветра измеряется на высoте 10 м (на урoвне рoста челoвека скoрoсть ветра ниже в 1.5-2 раза). Если метеoстанция нахoдится в гoрoде или в лесу, тo скoрoсть ветра занижена на 2-4 м/с пo сравнению с oткрытым местoм. Скoрoсть ветра над акватoриями крупных рек и oзёр, а также на вершинах хoлмoв на 2-5 м/с выше, чем в oбычных услoвиях.
Атмoсфернoе давление в разных тoчках местнoсти мoжет значительнo oтличаться oт давления на метеoстанции, в зависимoсти oт услoвий рельефа (при пoдъёме на 10 м давление пoнижается примернo на 1 мм рт.ст.).